| time (UTC) | temp C | wind direction | speed KPH | gust KPH | rain 1hr cm | rain 24hr cm | rain mn cm | humidity % | barometer mb |
| 20260906120001 | 21 | 238 | 0.0 | 1.6 | 0.00 | 0.00 | 0.00 | 93 | 1012.1 |
| 20260906110001 | 21 | 142 | 0.0 | 0.0 | 0.00 | 0.00 | 0.00 | 92 | 1011.3 |
| 20260906103002 | 21 | 212 | 0.0 | 1.6 | 0.00 | 0.00 | 0.00 | 91 | 1011.4 |
| 20260906100004 | 21 | 232 | 0.0 | 0.0 | 0.00 | 0.00 | 0.00 | 90 | 1011.1 |
| 20260906090002 | 21 | 345 | 0.0 | 0.0 | 0.00 | 0.00 | 0.00 | 90 | 1010.6 |
| 20260906080002 | 21 | 340 | 0.0 | 1.6 | 0.00 | 0.00 | 0.00 | 90 | 1010.5 |
| 20260906070001 | 22 | 337 | 0.0 | 0.0 | 0.00 | 0.00 | 0.00 | 87 | 1010.6 |
| 20260906060003 | 22 | 345 | 0.0 | 1.6 | 0.00 | 0.00 | 0.00 | 86 | 1010.8 |
| 20260906050008 | 22 | 340 | 0.0 | 1.6 | 0.00 | 0.00 | 0.00 | 85 | 1010.6 |
| 20260906044502 | 23 | 338 | 0.0 | 1.6 | 0.00 | 0.00 | 0.00 | 84 | 1010.7 |
| 20260906043002 | 22 | 337 | 0.0 | 1.6 | 0.00 | 0.00 | 0.00 | 84 | 1010.7 |
| 20260906041502 | 23 | 330 | 0.0 | 1.6 | 0.00 | 0.00 | 0.00 | 83 | 1010.9 |
| 20260906040005 | 23 | 82 | 0.0 | 1.6 | 0.00 | 0.00 | 0.00 | 82 | 1010.7 |
| 20260906034502 | 23 | 352 | 0.0 | 1.6 | 0.00 | 0.00 | 0.00 | 80 | 1010.9 |
| 20260906033003 | 23 | 346 | 0.0 | 1.6 | 0.00 | 0.00 | 0.00 | 81 | 1011.1 |
| 20260906031500 | 24 | 81 | 0.0 | 1.6 | 0.00 | 0.00 | 0.00 | 79 | 1011.2 |
| 20260906030007 | 24 | 338 | 0.0 | 1.6 | 0.00 | 0.00 | 0.00 | 79 | 1011.1 |
| 20260906024501 | 24 | 125 | 0.0 | 1.6 | 0.00 | 0.00 | 0.00 | 79 | 1011.1 |
| 20260906023000 | 24 | 340 | 0.0 | 0.0 | 0.00 | 0.00 | 0.00 | 78 | 1010.9 |
| 20260906021501 | 24 | 340 | 0.0 | 1.6 | 0.00 | 0.00 | 0.00 | 79 | 1010.8 |
| 20260906020004 | 23 | 53 | 0.0 | 1.6 | 0.00 | 0.00 | 0.00 | 82 | 1010.6 |
| 20260906014502 | 24 | 98 | 0.0 | 0.0 | 0.00 | 0.00 | 0.00 | 81 | 1010.3 |
| 20260906013003 | 25 | 97 | 0.0 | 0.0 | 0.00 | 0.00 | 0.00 | 77 | 1010.3 |
| 20260906011501 | 26 | 342 | 1.6 | 4.8 | 0.00 | 0.00 | 0.00 | 71 | 1010.1 |
| 20260906010003 | 26 | 341 | 1.6 | 3.2 | 0.00 | 0.00 | 0.00 | 72 | 1010.0 |
| 20260906004501 | 26 | 352 | 0.0 | 1.6 | 0.00 | 0.00 | 0.00 | 74 | 1010.0 |
| 20260906003001 | 26 | 340 | 0.0 | 1.6 | 0.00 | 0.00 | 0.00 | 72 | 1009.7 |
| 20260906001501 | 26 | 339 | 0.0 | 3.2 | 0.00 | 0.00 | 0.00 | 72 | 1009.5 |
| 20260906000003 | 26 | 348 | 0.0 | 0.0 | 0.00 | 0.00 | 0.00 | 73 | 1009.2 |
| 20260905230004 | 28 | 25 | 0.0 | 0.0 | 0.00 | 0.00 | 0.00 | 68 | 1009.1 |
| 20260905220004 | 30 | 75 | 0.0 | 6.4 | 0.00 | 0.05 | 0.00 | 62 | 1008.9 |
| 20260905213001 | 30 | 106 | 0.0 | 9.7 | 0.00 | 0.05 | 0.00 | 62 | 1008.7 |
| 20260905210003 | 31 | 70 | 0.0 | 6.4 | 0.00 | 0.05 | 0.00 | 59 | 1008.6 |
| 20260905203001 | 32 | 321 | 0.0 | 4.8 | 0.00 | 0.05 | 0.00 | 54 | 1008.7 |
| 20260905201500 | 32 | 84 | 0.0 | 8.0 | 0.00 | 0.05 | 0.00 | 54 | 1008.3 |
| 20260905200003 | 32 | 166 | 1.6 | 6.4 | 0.00 | 0.05 | 0.00 | 55 | 1008.2 |
| 20260905194502 | 32 | 51 | 0.0 | 6.4 | 0.00 | 0.05 | 0.00 | 54 | 1008.2 |
| 20260905193003 | 32 | 296 | 1.6 | 11.3 | 0.00 | 0.05 | 0.00 | 52 | 1008.3 |
| 20260905191500 | 31 | 341 | 9.7 | 16.1 | 0.00 | 0.05 | 0.00 | 50 | 1008.7 |
| 20260905190003 | 31 | 86 | 0.0 | 11.3 | 0.00 | 0.05 | 0.00 | 60 | 1008.8 |
| 20260905184501 | 31 | 113 | 0.0 | 11.3 | 0.00 | 0.05 | 0.00 | 59 | 1009.5 |
| 20260905183000 | 31 | 119 | 0.0 | 6.4 | 0.00 | 0.05 | 0.00 | 60 | 1009.9 |
| 20260905181502 | 30 | 91 | 0.0 | 8.0 | 0.00 | 0.05 | 0.00 | 61 | 1010.0 |
| 20260905180003 | 30 | 310 | 0.0 | 8.0 | 0.00 | 0.05 | 0.00 | 65 | 1010.3 |
| 20260905174500 | 29 | 22 | 0.0 | 8.0 | 0.00 | 0.05 | 0.00 | 62 | 1010.4 |
| 20260905173000 | 29 | 215 | 1.6 | 9.7 | 0.00 | 0.05 | 0.00 | 63 | 1010.1 |
| 20260905170003 | 30 | 134 | 3.2 | 11.3 | 0.00 | 0.05 | 0.00 | 60 | 1010.2 |
| 20260905160002 | 27 | 107 | 3.2 | 14.5 | 0.00 | 0.05 | 0.00 | 68 | 1011.2 |
| 20260905150001 | 26 | 159 | 1.6 | 17.7 | 0.00 | 0.05 | 0.00 | 75 | 1011.7 |
| 20260905140001 | 27 | 112 | 0.0 | 1.6 | 0.00 | 0.05 | 0.00 | 71 | 1011.0 |
| 20260905130001 | 26 | 124 | 0.0 | 3.2 | 0.00 | 0.05 | 0.00 | 76 | 1010.8 |